Location: Newark
(25.4800°N, 85.7200°E)
Time: 22:28:48
(UTC+00:00)

Vanguard 1 Rocket - Pass Details

Date: 22 August 2019
Orbit: 651 x 4225 km, 34.3° (Epoch: 20 September)

Event Time Altitude Azimuth Distance (km) Brightness Sun altitude
Rises 03:06:07 0° 287° (WNW) 4,471 10.5 42.4°
Reaches altitude 10° 03:08:37 10° 282° (WNW) 3,816 10.2 42.9°
Maximum altitude 03:18:45 50° 210° (SSW) 2,921 10.3 45.2°
Drops below altitude 10° 03:37:48 10° 142° (SE) 6,804 12.5 49.4°
Sets 03:44:16 0° 138° (SE) 8,181 12.7 50.8°
